South St. Paul, MN

1:53 AM CST on January 17, 2018 (GMT -0600)
South Saint Paul Municipal-Fleming

Weather History for KSGS - February, 2014

Change the Weather History Date:

Wednesday, February 19, 2014

  Actual Average (KSTP) Record (KSTP)
Temperature  
Mean Temperature 31 °F -  
Max Temperature 41 °F 30 °F 57 °F (2017)
Min Temperature 21 °F 15 °F -9 °F (2015)
Degree Days  
Heating Degree Days 34    
Moisture  
Dew Point 27 °F    
Average Humidity 75    
Maximum Humidity 91    
Minimum Humidity 62    
Precipitation  
Precipitation 0.00 in - - ()
Sea Level Pressure  
Sea Level Pressure 29.77 in    
Wind  
Wind Speed 4 mph (South)    
Max Wind Speed 10 mph    
Max Gust Speed -    
Visibility 10 miles    
Events      
Averages and records for this station are not official NWS values.
T = Trace of Precipitation, MM = Missing Value Source: NWS Daily Summary

Daily Weather History Graph

Daily Weather History Graph

Search for Another Location

Airport or City:

Trip Planner

Search our weather history database for the weather conditions in past years. The results will help you decide how hot, cold, wet, or windy it might be!

Date:

Astronomy

Feb. 19, 2014 Rise Set
Actual Time 7:06 AM CST 5:46 PM CST
Civil Twilight 6:36 AM CST 6:15 PM CST
Nautical Twilight 6:02 AM CST 6:50 PM CST
Astronomical Twilight 5:28 AM CST 7:23 PM CST
Moon 10:54 PM CST (2/19) 8:59 AM CST (2/19)
Length of Visible Light 11h 39m
Length of Day
10h 39m
Waning Gibbous, 79% of the Moon is Illuminated
Feb 19
Waning Gibbous
Feb 22
Last Quarter
Mar 1
New
Mar 8
First Quarter
Mar 16
Full

Hourly Weather History & Observations

Time (CST) Temp. Windchill Dew Point Humidity Pressure Visibility Wind Dir Wind Speed Gust Speed Precip Events Conditions
12:12 AM 32.0 °F 26.4 °F 23.9 °F 72% 29.75 in 10.0 mi WNW 5.8 mph - N/A   Clear
12:32 AM 31.1 °F 24.5 °F 23.7 °F 74% 29.76 in 10.0 mi WNW 6.9 mph - N/A   Clear
12:52 AM 31.1 °F 26.4 °F 23.7 °F 74% 29.76 in 10.0 mi West 4.6 mph - N/A   Clear
1:12 AM 30.2 °F 26.7 °F 23.4 °F 76% 29.76 in 10.0 mi West 3.5 mph - N/A   Clear
1:32 AM 30.0 °F 26.5 °F 23.5 °F 77% 29.76 in 10.0 mi West 3.5 mph - N/A   Clear
1:52 AM 30.2 °F 26.7 °F 23.4 °F 76% 29.76 in 10.0 mi WNW 3.5 mph - N/A   Clear
2:12 AM 29.7 °F - 23.0 °F 76% 29.76 in 10.0 mi Calm Calm - N/A   Clear
2:32 AM 29.3 °F - 22.1 °F 75% 29.77 in 10.0 mi Calm Calm - N/A   Clear
2:52 AM 28.9 °F - 22.1 °F 76% 29.77 in 10.0 mi Calm Calm - N/A   Clear
3:12 AM 28.4 °F - 21.9 °F 77% 29.78 in 10.0 mi Calm Calm - N/A   Clear
3:32 AM 28.4 °F 22.2 °F 22.1 °F 77% 29.78 in 10.0 mi West 5.8 mph - N/A   Clear
3:52 AM 28.4 °F 22.2 °F 22.3 °F 78% 29.78 in 10.0 mi West 5.8 mph - N/A   Clear
4:12 AM 28.2 °F 22.0 °F 22.1 °F 78% 29.78 in 10.0 mi West 5.8 mph - N/A   Clear
4:32 AM 27.9 °F - 22.3 °F 80% 29.78 in 10.0 mi Calm Calm - N/A   Clear
4:52 AM 27.0 °F - 22.1 °F 82% 29.78 in 10.0 mi Calm Calm - N/A   Clear
5:12 AM 26.4 °F - 22.3 °F 84% 29.79 in 10.0 mi Calm Calm - N/A   Clear
5:32 AM 25.3 °F - 21.6 °F 86% 29.80 in 10.0 mi Calm Calm - N/A   Clear
5:52 AM 25.7 °F - 22.5 °F 88% 29.80 in 10.0 mi Calm Calm - N/A   Clear
6:12 AM 26.6 °F - 23.2 °F 87% 29.81 in 10.0 mi Calm Calm - N/A   Clear
6:32 AM 24.6 °F - 21.0 °F 86% 29.80 in 10.0 mi Calm Calm - N/A   Clear
6:52 AM 24.3 °F - 21.2 °F 88% 29.80 in 10.0 mi Calm Calm - N/A   Clear
7:12 AM 24.6 °F - 21.7 °F 89% 29.81 in 10.0 mi Calm Calm - N/A   Clear
7:32 AM 21.6 °F 16.8 °F 18.3 °F 87% 29.81 in 7.0 mi SW 3.5 mph - N/A   Clear
7:52 AM 25.3 °F - 23.0 °F 91% 29.82 in 10.0 mi Calm Calm - N/A   Clear
8:12 AM 25.7 °F - 23.0 °F 89% 29.82 in 10.0 mi Calm Calm - N/A   Clear
8:32 AM 26.4 °F - 23.0 °F 87% 29.82 in 10.0 mi Calm Calm - N/A   Clear
8:52 AM 28.6 °F - 25.2 °F 87% 29.82 in 10.0 mi Calm Calm - N/A   Clear
9:12 AM 29.3 °F - 25.3 °F 85% 29.83 in 10.0 mi Calm Calm - N/A   Clear
9:32 AM 31.8 °F 28.5 °F 27.1 °F 83% 29.83 in 10.0 mi WSW 3.5 mph - N/A   Clear
9:52 AM 32.9 °F - 27.3 °F 80% 29.84 in 10.0 mi Calm Calm - N/A   Clear
10:12 AM 33.8 °F - 27.5 °F 78% 29.83 in 10.0 mi Calm Calm - N/A   Clear
10:32 AM 34.7 °F 30.6 °F 27.5 °F 75% 29.83 in 10.0 mi SW 4.6 mph - N/A   Clear
10:52 AM 35.8 °F - 27.5 °F 72% 29.83 in 10.0 mi Calm Calm - N/A   Clear
11:12 AM 37.2 °F 32.6 °F 27.9 °F 69% 29.82 in 10.0 mi WSW 5.8 mph - N/A   Clear
11:32 AM 38.5 °F - 28.0 °F 66% 29.82 in 10.0 mi Calm Calm - N/A   Clear
11:52 AM 39.0 °F 35.7 °F 27.1 °F 62% 29.81 in 10.0 mi ESE 4.6 mph - N/A   Clear
12:12 PM 39.6 °F 36.3 °F 28.2 °F 64% 29.80 in 10.0 mi ESE 4.6 mph - N/A   Clear
12:32 PM 39.9 °F 35.8 °F 28.6 °F 64% 29.80 in 10.0 mi SE 5.8 mph - N/A   Clear
12:52 PM 40.6 °F 36.7 °F 29.3 °F 64% 29.80 in 10.0 mi SSE 5.8 mph - N/A   Clear
1:12 PM 40.6 °F 36.7 °F 29.7 °F 65% 29.79 in 10.0 mi SSE 5.8 mph - N/A   Clear
1:32 PM 40.3 °F 36.3 °F 29.8 °F 66% 29.78 in 10.0 mi SSE 5.8 mph - N/A   Clear
1:52 PM 41.0 °F 37.1 °F 29.8 °F 64% 29.79 in 10.0 mi SSE 5.8 mph - N/A   Clear
2:12 PM 41.0 °F 35.8 °F 30.2 °F 65% 29.78 in 10.0 mi South 8.1 mph - N/A   Clear
2:32 PM 41.0 °F 35.8 °F 30.2 °F 65% 29.78 in 10.0 mi SSE 8.1 mph - N/A   Clear
2:52 PM 40.6 °F 35.4 °F 30.2 °F 66% 29.78 in 10.0 mi South 8.1 mph - N/A   Clear
3:12 PM 41.0 °F 37.1 °F 30.6 °F 66% 29.77 in 10.0 mi South 5.8 mph - N/A   Clear
3:32 PM 41.2 °F 39.2 °F 30.7 °F 66% 29.77 in 10.0 mi SSE 3.5 mph - N/A   Clear
3:52 PM 41.0 °F 38.0 °F 30.6 °F 66% 29.78 in 10.0 mi SE 4.6 mph - N/A   Clear
4:12 PM 41.0 °F 37.1 °F 30.7 °F 67% 29.77 in 10.0 mi SE 5.8 mph - N/A   Clear
4:32 PM 40.3 °F 36.3 °F 30.9 °F 69% 29.76 in 10.0 mi SSE 5.8 mph - N/A   Clear
4:52 PM 40.5 °F 37.3 °F 30.9 °F 69% 29.75 in 10.0 mi SE 4.6 mph - N/A   Clear
5:12 PM 40.3 °F 36.3 °F 30.7 °F 69% 29.75 in 10.0 mi SSE 5.8 mph - N/A   Clear
5:32 PM 40.3 °F 36.3 °F 30.2 °F 67% 29.75 in 10.0 mi SSE 5.8 mph - N/A   Clear
5:52 PM 39.7 °F 36.5 °F 30.6 °F 70% 29.75 in 10.0 mi SE 4.6 mph - N/A   Clear
6:12 PM 39.2 °F 35.9 °F 30.2 °F 70% 29.75 in 10.0 mi SE 4.6 mph - N/A   Clear
6:32 PM 38.5 °F 35.0 °F 30.2 °F 72% 29.75 in 10.0 mi SSE 4.6 mph - N/A   Clear
6:52 PM 38.3 °F 33.9 °F 30.0 °F 72% 29.74 in 10.0 mi SSE 5.8 mph - N/A   Clear
7:12 PM 38.3 °F 33.9 °F 30.0 °F 72% 29.74 in 10.0 mi SSE 5.8 mph - N/A   Clear
7:32 PM 37.4 °F 34.9 °F 29.7 °F 74% 29.73 in 10.0 mi SE 3.5 mph - N/A   Clear
7:52 PM 37.2 °F 33.6 °F 29.8 °F 75% 29.72 in 10.0 mi SSE 4.6 mph - N/A   Clear
8:12 PM 37.4 °F 31.4 °F 30.2 °F 75% 29.72 in 10.0 mi SSE 8.1 mph - N/A   Clear
8:32 PM 37.4 °F 30.8 °F 30.4 °F 76% 29.72 in 10.0 mi SSE 9.2 mph - N/A   Clear
8:52 PM 37.2 °F 31.9 °F 30.2 °F 76% 29.72 in 10.0 mi SSE 6.9 mph - N/A   Clear
9:12 PM 36.7 °F 30.5 °F 30.2 °F 77% 29.72 in 10.0 mi SSE 8.1 mph - N/A   Clear
9:32 PM 36.5 °F 31.0 °F 30.2 °F 78% 29.72 in 10.0 mi SSE 6.9 mph - N/A   Clear
9:52 PM 36.5 °F 30.3 °F 30.2 °F 78% 29.72 in 10.0 mi SSE 8.1 mph - N/A   Clear
10:12 PM 36.7 °F 30.5 °F 30.0 °F 77% 29.72 in 10.0 mi SSE 8.1 mph - N/A   Clear
10:32 PM 36.5 °F 30.3 °F 29.5 °F 76% 29.71 in 10.0 mi SSE 8.1 mph - N/A   Clear
10:52 PM 36.5 °F 29.2 °F 29.8 °F 77% 29.71 in 10.0 mi SSE 10.4 mph - N/A   Clear
11:12 PM 36.5 °F 29.7 °F 29.8 °F 77% 29.71 in 10.0 mi SSE 9.2 mph - N/A   Scattered Clouds
11:32 PM 36.5 °F 29.7 °F 29.8 °F 77% 29.70 in 10.0 mi SSE 9.2 mph - N/A   Scattered Clouds
11:52 PM 36.7 °F 30.5 °F 30.0 °F 77% 29.70 in 10.0 mi SSE 8.1 mph - N/A   Mostly Cloudy